[ hide orbit diagram ]
For accurate long-term ephemerides, please instead use our Horizons system.This orbit viewer was implemented using two-body methods, and hence should not be used for determining accurate long-term trajectories (over several years or decades) or planetary encounter circumstances.
[ revert to old Java-based viewer ]
Orbital Elements at Epoch 2458600.5 (2019-Apr-27.0) TDB
Reference: JPL 17 (heliocentric ecliptic J2000)
Element | Value | Uncertainty (1-sigma) | Units |
e | .1308993886372599 | 8.972e-08 | |
a | 2.527993479125549 | 5.261e-08 | au |
q | 2.197080678229035 | 2.3714e-07 | au |
i | 12.3102426085357 | 1.9923e-05 | deg |
node | 313.9273375988985 | 3.6474e-05 | deg |
peri | 276.9362721425715 | 0.00012905 | deg |
M | 140.5265226844619 | 0.00011293 | deg |
tp | 2458027.416176219436 (2017-Sep-30.91617622) | 0.00046237 | TDB |
period | 1468.122690435112 4.02 | 4.5829e-05 1.255e-07 | d yr |
n | .2452111137205473 | 7.6546e-09 | deg/d |
Q | 2.858906280022063 | 5.9496e-08 | au |
|
| | Orbit Determination Parameters
Additional Information
|
[ show covariance matrix ]
Physical Parameter Table
Parameter |
Symbol |
Value |
Units |
Sigma |
Reference |
Notes |
absolute magnitude |
H |
17.3 |
|
n/a |
MPO456348 |
|
|
487260 (2014 PH35) Discovered 2006-Sep-15 by Spacewatch at Kitt Peak |
Reference: | Last Updated: 2017-03-14 |
|
|